This demonstration page uses our WeatherBlox Daily Observations layout. Learn more.

41.55636, -103.73856

Hourly Observations for June 4, 2020

Temp ( °F °C ) Dew Point ( °F °C ) Humidity (%) Winds ( mph kmh ) Pressure ( in mb ) Visibility ( mi km ) Precip ( " mm )
12:58 am 00:58 Mostly Clear 74 23.6 42 5.4 31 31 NW 10 17 29.85 1011 10 16.0934 0 0
1:58 am 01:58 Mostly Cloudy 73 22.7 41 5 32 32 W 16 26 29.84 1011 10 16.0934 0 0
2:58 am 02:58 Clear 64 17.8 44 6.6 48 48 WSW 8 13 29.85 1011 10 16.0934 0 0
3:58 am 03:58 Clear 63 17.1 41 5.2 46 46 WSW 6 9 29.84 1011 10 16.0934 0 0
4:58 am 04:58 Clear 62 16.5 42 5.6 49 49 SW 9 15 29.85 1011 10 16.0934 0 0
5:58 am 05:58 Mostly Clear 61 15.9 43 6.3 53 53 SSW 7 11 29.85 1011 10 16.0934 0 0
6:58 am 06:58 Clear 60 15.3 43 6.2 55 55 SW 8 13 29.85 1011 10 16.0934 0 0
7:58 am 07:58 Mostly Cloudy 64 17.5 43 6.1 47 47 SW 9 15 29.81 1010 10 16.0934 0 0
8:58 am 08:58 Mostly Clear 60 15.6 43 6.3 54 54 SW 6 9 29.8 1009 10 16.0934 0 0
9:58 am 09:58 Clear 58 14.5 42 5.6 55 55 WSW 7 11 29.8 1009 10 16.0934 0 0
10:58 am 10:58 Clear 54 12 40 4.7 61 61 SW 5 7 29.82 1010 10 16.0934 0 0
11:58 am 11:58 Sunny 54 12.3 40 4.5 59 59 Calm 29.83 1010 10 16.0934 0 0
12:58 pm 12:58 Sunny 60 15.7 44 6.4 54 54 WSW 7 11 29.83 1010 10 16.0934 0 0
1:58 pm 13:58 Sunny 70 21.1 42 5.3 36 36 W 10 17 29.81 1010 10 16.0934 0 0
3:56 pm 15:56 Sunny 80 26.5 40 4.6 25 25 NW 8 13 29.81 1010 10 16.0934 0 0
4:56 pm 16:56 Sunny 83 28.3 39 3.7 21 21 NW 8 13 29.79 1009 10 16.0934 0 0
5:56 pm 17:56 Sunny 85 29.7 37 2.7 18 18 W 10 17 29.77 1008 10 16.0934 0 0
6:56 pm 18:56 Sunny 88 31 35 1.4 15 15 WNW 13 20 29.75 1007 10 16.0934 0 0
7:58 pm 19:58 Mostly Cloudy 85 29.3 35 1.8 17 17 NW 14 22 29.72 1007 10 16.0934 0 0
8:58 pm 20:58 Sunny 90 32.1 34 1.3 14 14 SW 9 15 29.69 1005 10 16.0934 0 0
9:58 pm 21:58 Sunny 92 33.5 28 -2.2 10 10 W 23 37 29.67 1005 10 16.0934 0 0
10:58 pm 22:58 Sunny 91 32.8 27 -3 10 10 WNW 21 33 29.67 1005 10 16.0934 0 0
11:58 pm 23:58 Mostly Sunny 85 29.7 42 5.3 21 21 NE 12 19 29.7 1006 10 16.0934 0 0

Powered by AerisWeather